Satellite-Ground Cal/Val Site Overpasses Predictions

Prediction of Satellite NPP Overpassing Cal/Val Site: Antarctic Dome C

Ground Cal/Val Site Location: Latitude: -75.10, Longitude: 123.35; Satellite-Ground Site NADIR distance within 100 km.

Table of predicted overpasses for the next 14.0 days since TLE Epoch: 4/13/2013
Interval Starting Time Ending Time Minimum Distance Time Minimum Distance (km)
1 04/13/2013 15:00:37 04/13/2013 15:01:00 04/13/2013 15:00:49 64.09
2 04/14/2013 14:41:47 04/14/2013 14:42:13 04/14/2013 14:42:00 45.27
3 04/15/2013 07:43:29 04/15/2013 07:43:49 04/15/2013 07:43:39 72.27
4 04/16/2013 07:24:37 04/16/2013 07:25:04 04/16/2013 07:24:51 35.54
5 04/19/2013 14:48:04 04/19/2013 14:48:34 04/19/2013 14:48:19 9.48
6 04/21/2013 07:30:56 04/21/2013 07:31:25 04/21/2013 07:31:10 2.43
7 04/24/2013 14:54:24 04/24/2013 14:54:52 04/24/2013 14:54:38 27.10
8 04/25/2013 14:35:42 04/25/2013 14:35:59 04/25/2013 14:35:50 80.18
9 04/26/2013 07:37:15 04/26/2013 07:37:42 04/26/2013 07:37:28 37.27


NCC Satellite Cal/Val Overpasses Prediction Service
